When you browse on this site, cookies collect data to enhance your experience and personalize the content and advertising you see.
Visit our Privacy Policy to learn more. By continuing to use the site, you agree to this use of cookies and data.
  • In Spain
  • List of Countries
  • For 7 days
  • Water Temperature
  • Weather Map
  • Weather Widgets
  • user-avatar
    Login

    Hourly Weather Schetinino 1

    Today, 20 August, Tuesday

    Time Temperature Precipitation Wind Pressure Humidity
    00:00 +15°C° 0 mm 0 mps 744 mmHg 87%
    01:00 +15°C° 0 mm 0 mps 744 mmHg 87%
    02:00 +15°C° 0 mm 0 mps 744 mmHg 87%
    03:00 +15°C° 0 mm 0 mps 744 mmHg 87%
    04:00 +15°C° 0 mm 0 mps 744 mmHg 87%
    05:00 +15°C° 0 mm 0 mps 745 mmHg 87%
    06:00 +16°C° 0 mm 0 mps 745 mmHg 82%
    07:00 +18°C° 0 mm 0 mps 745 mmHg 77%
    08:00 +22°C° 0 mm 1 mps 745 mmHg 71%
    09:00 +23°C° 0 mm 1 mps 745 mmHg 67%
    10:00 +24°C° 0 mm 1 mps 745 mmHg 62%
    11:00 +25°C° 0 mm 1 mps 745 mmHg 58%
    12:00 +26°C° 0 mm 1 mps 745 mmHg 56%
    13:00 +26°C° 0 mm 1 mps 745 mmHg 55%
    14:00 +27°C° 0 mm 1 mps 745 mmHg 53%
    15:00 +27°C° 0 mm 1 mps 745 mmHg 57%
    16:00 +26°C° 0 mm 1 mps 745 mmHg 61%
    17:00 +26°C° 0 mm 1 mps 745 mmHg 65%
    18:00 +24°C° 0 mm 1 mps 745 mmHg 68%
    19:00 +23°C° 0 mm 1 mps 745 mmHg 71%
    20:00 +21°C° 0 mm 1 mps 745 mmHg 74%
    21:00 +21°C° 0 mm 1 mps 745 mmHg 76%
    22:00 +20°C° 0 mm 1 mps 745 mmHg 77%
    23:00 +20°C° 0 mm 1 mps 745 mmHg 78%

    Tomorrow, 21 August, Wednesday

    Time Temperature Precipitation Wind Pressure Humidity
    00:00 +20°C° 0 mm 1 mps 746 mmHg 79%
    01:00 +19°C° 0 mm 1 mps 746 mmHg 81%
    02:00 +19°C° 0 mm 1 mps 746 mmHg 82%
    03:00 +19°C° 0 mm 1 mps 746 mmHg 83%
    04:00 +19°C° 0 mm 1 mps 746 mmHg 83%
    05:00 +19°C° 0 mm 1 mps 746 mmHg 84%
    06:00 +20°C° 0 mm 1 mps 746 mmHg 79%
    07:00 +22°C° 0 mm 1 mps 746 mmHg 75%
    08:00 +24°C° 0 mm 1 mps 746 mmHg 70%
    09:00 +25°C° 0 mm 1 mps 746 mmHg 67%
    10:00 +24°C° 0 mm 0 mps 746 mmHg 63%
    11:00 +26°C° 0 mm 0 mps 746 mmHg 60%
    12:00 +26°C° 0 mm 0 mps 746 mmHg 58%
    13:00 +28°C° 0 mm 1 mps 746 mmHg 57%
    14:00 +29°C° 0 mm 1 mps 746 mmHg 55%
    15:00 +28°C° 0 mm 1 mps 745 mmHg 59%
    16:00 +28°C° 0 mm 1 mps 745 mmHg 62%
    17:00 +28°C° 0 mm 1 mps 745 mmHg 65%
    18:00 +26°C° 0 mm 1 mps 745 mmHg 69%
    19:00 +25°C° 0 mm 1 mps 745 mmHg 73%
    20:00 +23°C° 0 mm 1 mps 745 mmHg 76%
    21:00 +22°C° 0 mm 1 mps 745 mmHg 78%
    22:00 +22°C° 0 mm 1 mps 745 mmHg 79%
    23:00 +20°C° 0 mm 2 mps 745 mmHg 80%

    Day after tomorrow, 22 August, Thursday

    Time Temperature Precipitation Wind Pressure Humidity
    00:00 +20°C° 0 mm 2 mps 744 mmHg 82%
    01:00 +20°C° 0 mm 1 mps 744 mmHg 83%
    02:00 +20°C° 0 mm 1 mps 744 mmHg 85%
    03:00 +20°C° 0 mm 1 mps 744 mmHg 86%
    04:00 +20°C° 0 mm 1 mps 744 mmHg 86%
    05:00 +19°C° 0 mm 1 mps 743 mmHg 87%
    06:00 +21°C° 0 mm 1 mps 743 mmHg 82%
    07:00 +22°C° 0 mm 1 mps 744 mmHg 77%
    08:00 +24°C° 0 mm 1 mps 744 mmHg 72%
    09:00 +25°C° 0 mm 1 mps 744 mmHg 68%
    10:00 +26°C° 0 mm 1 mps 744 mmHg 65%
    11:00 +28°C° 0 mm 1 mps 744 mmHg 62%
    12:00 +28°C° 0 mm 1 mps 743 mmHg 60%
    13:00 +28°C° 0 mm 1 mps 743 mmHg 59%
    14:00 +28°C° 0 mm 1 mps 743 mmHg 58%
    15:00 +27°C° 0.7 mm 2 mps 743 mmHg 65%
    16:00 +26°C° 0.7 mm 3 mps 743 mmHg 72%
    17:00 +25°C° 0.7 mm 4 mps 743 mmHg 79%
    18:00 +22°C° 0.5 mm 4 mps 744 mmHg 84%
    19:00 +21°C° 0.5 mm 4 mps 744 mmHg 89%
    20:00 +19°C° 0.5 mm 5 mps 744 mmHg 93%
    21:00 +18°C° 0.1 mm 4 mps 744 mmHg 93%
    22:00 +18°C° 0.1 mm 4 mps 745 mmHg 93%
    23:00 +17°C° 0.1 mm 4 mps 745 mmHg 93%

    23 August, Friday

    Time Temperature Precipitation Wind Pressure Humidity
    00:00 +17°C° 0 mm 4 mps 745 mmHg 93%
    01:00 +15°C° 0 mm 4 mps 745 mmHg 93%
    02:00 +15°C° 0 mm 4 mps 745 mmHg 93%
    03:00 +15°C° 0 mm 4 mps 745 mmHg 93%
    04:00 +14°C° 0 mm 4 mps 745 mmHg 93%
    05:00 +14°C° 0 mm 4 mps 745 mmHg 93%
    06:00 +15°C° 0 mm 4 mps 746 mmHg 89%
    07:00 +17°C° 0 mm 4 mps 746 mmHg 86%
    08:00 +17°C° 0 mm 5 mps 746 mmHg 82%
    09:00 +19°C° 0 mm 4 mps 746 mmHg 77%
    10:00 +20°C° 0 mm 4 mps 746 mmHg 73%
    11:00 +21°C° 0 mm 4 mps 746 mmHg 68%
    12:00 +21°C° 0 mm 4 mps 746 mmHg 67%
    13:00 +22°C° 0 mm 4 mps 746 mmHg 65%
    14:00 +22°C° 0 mm 4 mps 746 mmHg 63%
    15:00 +22°C° 0 mm 4 mps 746 mmHg 65%
    16:00 +21°C° 0 mm 3 mps 746 mmHg 68%
    17:00 +21°C° 0 mm 3 mps 746 mmHg 71%
    18:00 +19°C° 0 mm 2 mps 746 mmHg 73%
    19:00 +18°C° 0 mm 2 mps 746 mmHg 75%
    20:00 +16°C° 0 mm 2 mps 746 mmHg 77%
    21:00 +16°C° 0 mm 2 mps 746 mmHg 79%
    22:00 +15°C° 0 mm 2 mps 747 mmHg 81%
    23:00 +15°C° 0 mm 2 mps 747 mmHg 82%

    24 August, Saturday

    Time Temperature Precipitation Wind Pressure Humidity
    00:00 +14°C° 0 mm 2 mps 747 mmHg 83%
    01:00 +14°C° 0 mm 2 mps 747 mmHg 84%
    02:00 +13°C° 0 mm 2 mps 747 mmHg 85%
    03:00 +13°C° 0 mm 2 mps 747 mmHg 85%
    04:00 +13°C° 0 mm 2 mps 747 mmHg 86%
    05:00 +12°C° 0 mm 2 mps 747 mmHg 87%
    06:00 +14°C° 0 mm 2 mps 747 mmHg 83%
    07:00 +16°C° 0 mm 3 mps 748 mmHg 78%
    08:00 +17°C° 0 mm 3 mps 748 mmHg 74%
    09:00 +18°C° 0 mm 3 mps 748 mmHg 68%
    10:00 +20°C° 0 mm 3 mps 748 mmHg 61%
    11:00 +21°C° 0 mm 3 mps 748 mmHg 54%
    12:00 +21°C° 0 mm 2 mps 748 mmHg 52%
    13:00 +23°C° 0 mm 2 mps 748 mmHg 50%
    14:00 +23°C° 0 mm 2 mps 747 mmHg 48%
    15:00 +23°C° 0 mm 2 mps 747 mmHg 52%
    16:00 +21°C° 0 mm 2 mps 747 mmHg 57%
    17:00 +22°C° 0 mm 1 mps 747 mmHg 61%
    18:00 +20°C° 0 mm 1 mps 747 mmHg 64%
    19:00 +19°C° 0 mm 1 mps 747 mmHg 67%
    20:00 +15°C° 0 mm 0 mps 747 mmHg 69%
    21:00 +16°C° 0 mm 1 mps 747 mmHg 70%
    22:00 +15°C° 0 mm 1 mps 747 mmHg 72%
    23:00 +15°C° 0 mm 2 mps 747 mmHg 73%

    25 August, Sunday

    Time Temperature Precipitation Wind Pressure Humidity
    00:00 +14°C° 0 mm 2 mps 747 mmHg 74%
    01:00 +14°C° 0 mm 2 mps 747 mmHg 75%
    02:00 +14°C° 0 mm 2 mps 747 mmHg 76%
    03:00 +13°C° 0 mm 2 mps 747 mmHg 78%
    04:00 +13°C° 0 mm 2 mps 747 mmHg 80%
    05:00 +13°C° 0 mm 2 mps 747 mmHg 82%
    06:00 +15°C° 0 mm 2 mps 747 mmHg 79%
    07:00 +16°C° 0 mm 2 mps 747 mmHg 77%
    08:00 +18°C° 0 mm 2 mps 747 mmHg 74%
    09:00 +19°C° 0 mm 3 mps 747 mmHg 69%
    10:00 +21°C° 0 mm 3 mps 746 mmHg 65%
    11:00 +22°C° 0 mm 3 mps 746 mmHg 60%
    12:00 +22°C° 0 mm 3 mps 746 mmHg 58%
    13:00 +24°C° 0 mm 3 mps 746 mmHg 57%
    14:00 +24°C° 0 mm 3 mps 745 mmHg 56%
    15:00 +24°C° 0 mm 3 mps 745 mmHg 59%
    16:00 +22°C° 0 mm 3 mps 745 mmHg 63%
    17:00 +23°C° 0 mm 2 mps 744 mmHg 67%
    18:00 +20°C° 0 mm 2 mps 744 mmHg 71%
    19:00 +18°C° 0 mm 2 mps 744 mmHg 76%
    20:00 +17°C° 0 mm 2 mps 745 mmHg 81%
    21:00 +16°C° 0 mm 2 mps 745 mmHg 83%
    22:00 +16°C° 0 mm 2 mps 745 mmHg 85%
    23:00 +15°C° 0 mm 2 mps 745 mmHg 88%
    Show more